STARLINK-34365

Satellite information

Favourite Embed

Satellite Type and Status

PAYLOADIN ORBIT

Key statistics

Satellite STARLINK-34365 at a glance.

Uptime

20

Days in orbit

Revolutions

≈ 15.5

Per day

Orbit

LEO

Low Earth Orbit

Inclination

53.2

Latest

Satellite identification and parameters

Extended collection of information and parameters for STARLINK-34365.

Object identification

Identified? True

Debris? False

Object name: STARLINK-34365

International designator: 2025-139H

Object number (NORAD): 64671

Object ID (CCSDS): 64671

Country: UNITED STATES OF AMERICA (US)

Current information (Y/N): Y

RCS size: LARGE

Orbital parameters

Period: 92.944 minutes

Inclination: 53.1591 deg

SMA: 6796.847 km

Apoapsis: 419.241 km

Periapsis: 418.182 km

RAAN: 141.414 deg

Eccentricy: 0.0000779

Argument of periapsis: 74.9837 deg

Mean anomaly: 285.1258 deg

Mean motion: 15.49321547 rev/day

Mean motion (dot): 0.00081606 rev/day2

B* drag term: 0.0014594 1/REarth

Two-line elements (TLE)

Creation date: July 18, 2025, 2:44 a.m.

Reference frame: TEME

Reference center: EARTH

Epoch: July 17, 2025, 9:42 p.m. UTC

TLE line 0: 0 STARLINK-34365

TLE line 1: 1 64671U 25139H 25198.90429244 .00081606 00000-0 14594-2 0 9999

TLE line 2: 2 64671 53.1591 141.4140 0000779 74.9837 285.1258 15.49321547 4349

Live tracking on map

Real-time ground track for satellite STARLINK-34365.

In-orbit conjunctions

There are no conjunctions computed for STARLINK-34365, at the moment. Check back to stay up to date, as we update our databases every day.

Go to all conjunctions

Associated space launch

A batch of 27 satellites for the Starlink mega-constellation - SpaceX's project for space-based Internet communication system.

STARLINK-34365 was lifted into orbit during the mission ‘Falcon 9 Block 5 | Starlink Group 10-34’, on board a Falcon 9 space rocket.

The launch took place on June 28, 2025, 4:26 a.m. from Space Launch Complex 40.

For more information about the launch, click the button.

Launch to space Falcon 9 Block 5 | Starlink Group 10-34
Falcon 9 Block 5 | Starlink Group 10-34

Agency: SpaceX

Status: Launch Successful

Launch date: June 28, 2025, 4:26 a.m. UTC

Rocket: Falcon 9

Launch pad: Space Launch Complex 40

Location: Cape Canaveral SFS, FL, USA

...

Latest news about this satellite

News about space launch
Live coverage: SpaceX to launch 27 Starlink satellites on Falcon 9 rocket from Cape Canaveral

The Starlink 10-34 mission will be SpaceX’s 80s Falcon 9 launch of the year. The company is targeting liftoff from pad 40 at 12:26 a.m. EDT (0426 UTC).

News about space launch
Launch Roundup: Launch manifest remains busy as 2025’s halfway point approaches

With summer and winter for the Northern and Southern Hemispheres now in full swing, the… The post Launch Roundup: Launch manifest remains busy as 2025’s halfway point approaches appeared first on NASASpaceFlight.com.


Newsletter sign-up

Weekly statistics, charts and insights to help you stay on top of the space industry.